KickSat 2 (44046 NORAD) Tracking and Keplerian Element Data

This shows tracking and keplerian element data for the satellite.

Feedback or suggestion? Click here.




ElementValue
Catalog44046
NameKickSat 2
Epoch Orbit692
Epoch Day87.84796665
Epoch Year2019
RAAN26.4651
Inclination51.6419
Eccentricity0.0006498
Argument of Perigee158.7006
Mean Anonmoly201.5434
Mean Motion16.14186897
Decay Rate0.01117662
L11 44046U 18092G 19087.84796665 .01117662 84024-3 87520-3 0 9994
L22 44046 51.6419 26.4651 0006498 158.7006 201.5434 16.14186897 6921



Live tracking and technical data element details for KickSat 2 (NORAD 44046). KickSat 2 can be tracked NOW for your location showing map with azimuth and elevation plus other details from your city location.







IsCatalogInMostPopularTable: catalog: 44046, numindb: 408
Update: records affected: 1



GetName: 44046 KickSat 2

Hit Count: updated at: Thu, 23 Jan 2025 17:33:46 GMT